This is the latest recevied weather packets stored in our database for station/object DG9MHV-10. If no packets are shown the sender has not sent any weather packets the latest 10 day(s).
| Time | Temp. | Humidity | Pressure | Rain* | Wind** | Luminosity | Snow |
|---|---|---|---|---|---|---|---|
| 1777860669 | 11.67° C | 100% | 1015.8 hPa | - | - | - | - |
| 1777859772 | 11.67° C | 100% | 1015.7 hPa | - | - | - | - |
| 1777858869 | 11.67° C | 100% | 1015.8 hPa | - | - | - | - |
| 1777857969 | 12.22° C | 100% | 1015.7 hPa | - | - | - | - |
| 1777857069 | 12.78° C | 100% | 1015.8 hPa | - | - | - | - |
| 1777856169 | 12.78° C | 100% | 1015.8 hPa | - | - | - | - |
| 1777855269 | 12.78° C | 100% | 1015.9 hPa | - | - | - | - |
| 1777854369 | 12.22° C | 100% | 1016 hPa | - | - | - | - |
| 1777853469 | 12.78° C | 100% | 1016.1 hPa | - | - | - | - |
| 1777852568 | 12.78° C | 100% | 1015.9 hPa | - | - | - | - |
| 1777851668 | 12.78° C | 100% | 1015.8 hPa | - | - | - | - |
| 1777850769 | 12.78° C | 100% | 1015.7 hPa | - | - | - | - |
| 1777849868 | 12.78° C | 100% | 1015.6 hPa | - | - | - | - |
| 1777848968 | 12.78° C | 100% | 1015.6 hPa | - | - | - | - |
| 1777848068 | 13.33° C | 100% | 1015.4 hPa | - | - | - | - |
| 1777847168 | 13.89° C | 100% | 1015.3 hPa | - | - | - | - |
| 1777846268 | 13.89° C | 100% | 1015.3 hPa | - | - | - | - |
| 1777845368 | 13.89° C | 100% | 1015.1 hPa | - | - | - | - |
| 1777844468 | 14.44° C | 100% | 1015.1 hPa | - | - | - | - |
| 1777843568 | 14.44° C | 100% | 1014.9 hPa | - | - | - | - |
| 1777842668 | 15° C | 100% | 1014.8 hPa | - | - | - | - |
| 1777841767 | 15° C | 100% | 1014.6 hPa | - | - | - | - |
| 1777840867 | 15.56° C | 100% | 1014.3 hPa | - | - | - | - |
| 1777839967 | 15.56° C | 100% | 1014.1 hPa | - | - | - | - |
| 1777839067 | 16.11° C | 100% | 1014 hPa | - | - | - | - |
* Rain since midnight (hover to see other rain measurements)
** Current wind speed in m/s (hover to see current wind gust speed)